Hourly Weather Roundup
Issued by NWS Central Illinois

Home | Current Version | Previous Version | Graphics & Text | Print | Product List | Glossary On
Versions: 1 2 3 4 5 6 7 8 9 10 11 12 13 14 15 16 17 18 19 20 21 22 23 24 25 26 27 28 29 30 31 32 33 34 35 36 37 38 39 40 41 42 43 44 45 46 47 48 49 50
000
NZUS43 KILX 280510
HWRILX

AREA WEATHER ROUNDUP
NATIONAL WEATHER SERVICE, LINCOLN IL
1200 AM CDT TUE JUL 28 2015


CITY           SKY/WX    TMP DP  RH WIND       PRES   REMARKS
BLOOMINGTON    CLOUDY    74  73  96 E6        29.98F
CHAMPAIGN      CLOUDY    76  72  87 E5        29.98S
DANVILLE       CLOUDY    74  71  92 E5        29.95F
DECATUR        CLOUDY    75  72  90 SE3       29.96F
EFFINGHAM      CLOUDY    77  73  86 CALM      29.97F
FLORA          NOT AVBL
GALESBURG      MOCLDY    74  72  91 CALM      29.95S
JACKSONVILLE   CLOUDY    75  73  93 CALM      29.94R
LACON          CLOUDY    75  69  80 E7        29.95F
LAWRENCEVILLE  CLOUDY    76  72  87 CALM      29.97S
LITCHFIELD     CLOUDY    73  69  87 CALM      29.94F
$$


CITY           SKY/WX    TMP DP  RH WIND       PRES   REMARKS
LINCOLN        CLOUDY    76  73  88 CALM      29.94F
MACOMB         MOCLDY    73  73  97 E5        29.96S FOG
MATTOON        CLOUDY    77  71  82 NE3       29.96F
MT CARMEL AP   CLOUDY    79  73  83 CALM      29.96F HX  82
OLNEY-NOBLE AP LGT RAIN  77  73  88 CALM      29.95F
PARIS          CLOUDY    74  73  98 E3        29.97F FOG
PEORIA         CLOUDY    79  71  76 E7        29.95S HX  82
PONTIAC        CLOUDY    75  71  86 E5        29.99S
RANTOUL        CLOUDY    77  73  88 E7        29.97F
ROBINSON       CLOUDY    74  72  95 E5        29.97F
SPRINGFIELD    CLOUDY    79  75  87 SE6       29.94F HX  83
TAYLORVILLE    CLOUDY    77  73  88 SE5       29.95S
$$

...REGIONAL REPORTS...


CITY           SKY/WX    TMP DP  RH WIND       PRES   REMARKS
CHICAGO O`HARE MOCLDY    74  66  76 E8        30.00F
KANKAKEE       MOCLDY    72  68  89 CALM      30.00F
MOLINE         PTCLDY    74  71  91 CALM      29.94S
MOUNT STERLING NOT AVBL
MOUNT VERNON   CLOUDY    75  70  83 W3        29.96F
PITTSFIELD     CLOUDY    73  71  94 CALM      29.94F
QUINCY         MOCLDY    73  70  90 CALM      29.93S
ROCKFORD       MOCLDY    72  63  73 E6        30.00F
$$


CITY           SKY/WX    TMP DP  RH WIND       PRES   REMARKS
BURLINGTON     MOCLDY    76  74  93 E3        29.93S
CEDAR RAPIDS   PTCLDY    72  72 100 E5        29.94F
DES MOINES     PTCLDY    74  69  85 SE6       29.91S
KIRKSVILLE     CLEAR     73  70  90 SE7       29.95S
OTTUMWA        CLEAR     71  71 100 SE6       29.92S
ST LOUIS       CLOUDY    79  69  71 VRB6      29.96S HX  81
$$


CITY           SKY/WX    TMP DP  RH WIND       PRES   REMARKS
TERRE HAUTE    MOCLDY    75  73  93 CALM      29.97S
EVANSVILLE     CLOUDY    78  71  79 W5        29.96F HX  80
INDIANAPOLIS   CLOUDY    78  71  79 E8        29.99S HX  80
LAFAYETTE      MOCLDY    73  67  81 NE5       29.98F
MADISON        CLEAR     73  63  70 SE7       30.00F
MILWAUKEE      MOCLDY    71  65  81 SE3       30.01F
$$




USA.gov is the U.S. government's official web portal to all federal, state and local government web resources and services.